Weather History for Hamilton, OH

Change the Weather History Date:

Tuesday, May 14, 2013

  Actual Average (KCVG) Record (KCVG)
Temperature  
Mean Temperature 62 °F 63 °F  
Max Temperature 82 °F 73 °F 89 °F (1962)
Min Temperature 41 °F 53 °F 36 °F (1996)
Degree Days  
Heating Degree Days 4 4  
Month to date heating degree days 76  
Since 1 July heating degree days 4910  
Cooling Degree Days 0 2  
Month to date cooling degree days 20  
Year to date cooling degree days 38  
Growing Degree Days 12 (Base 50)    
Moisture  
Dew Point 47 °F    
Average Humidity 61    
Maximum Humidity 93    
Minimum Humidity 39    
Precipitation  
Precipitation 0.00 in 0.17 in 1.65 in (2014)
Month to date precipitation 2.23  
Year to date precipitation 15.89  
Snow  
Snow 0.00 in 0.00 in 0.00 in ()
Month to date snowfall 0.0  
Since 1 July snowfall 22.1  
Snow Depth -    
Sea Level Pressure  
Sea Level Pressure 30.00 in    
Wind  
Wind Speed 4 mph (South)    
Max Wind Speed 14 mph    
Max Gust Speed 25 mph    
Visibility 10 miles    
Events      
T = Trace of Precipitation, MM = Missing Value Source: NWS Daily Summary

Daily Weather History Graph

Daily Weather History Graph

Search for Another Location

Airport:

Trip Planner

Search our weather history database for the weather conditions in past years. The results will help you decide how hot, cold, wet, or windy it might be!

Date:

Astronomy

May. 14, 2013 Rise Set
Actual Time 6:25 AM EDT 8:44 PM EDT
Civil Twilight 5:54 AM EDT 9:14 PM EDT
Nautical Twilight 5:17 AM EDT 9:51 PM EDT
Astronomical Twilight 4:36 AM EDT 10:33 PM EDT
Moon 10:03 AM EDT (5/14) No Moon Set
Length of Visible Light 15h 19m
Length of Day
14h 19m
Waxing Crescent, 19% of the Moon is Illuminated
May 14
Waxing Crescent
May 18
First Quarter
May 25
Full
May 31
Last Quarter
Jun 8
New

Hourly Weather History & Observations

Time (EDT) Temp. Heat Index Dew Point Humidity Pressure Visibility Wind Dir Wind Speed Gust Speed Precip Events Conditions
12:53 AM 42.1 °F - 39.0 °F 89% 30.17 in 10.0 mi Calm Calm - N/A   Clear
1:53 AM 41.0 °F - 39.0 °F 93% 30.15 in 10.0 mi Calm Calm - N/A   Mostly Cloudy
2:53 AM 42.1 °F - 39.0 °F 89% 30.15 in 10.0 mi Calm Calm - N/A   Clear
3:53 AM 43.0 °F - 39.9 °F 89% 30.14 in 10.0 mi Calm Calm - N/A   Clear
4:53 AM 46.0 °F - 43.0 °F 89% 30.12 in 10.0 mi Calm Calm - N/A   Overcast
5:53 AM 46.9 °F - 41.0 °F 80% 30.11 in 10.0 mi ESE 4.6 mph - N/A   Overcast
6:53 AM 48.0 °F - 41.0 °F 77% 30.12 in 10.0 mi East 3.5 mph - N/A   Overcast
7:53 AM 50.0 °F - 41.0 °F 71% 30.12 in 10.0 mi ESE 3.5 mph - N/A   Overcast
8:53 AM 54.0 °F - 39.0 °F 57% 30.12 in 10.0 mi Variable 3.5 mph - N/A   Overcast
9:53 AM 59.0 °F - 39.0 °F 48% 30.10 in 10.0 mi Variable 6.9 mph - N/A   Mostly Cloudy
10:53 AM 64.0 °F - 39.0 °F 40% 30.06 in 10.0 mi South 9.2 mph 16.1 mph N/A   Clear
11:53 AM 66.9 °F - 43.0 °F 42% 30.02 in 10.0 mi SSW 10.4 mph - N/A   Clear
12:53 PM 72.0 °F - 46.0 °F 40% 29.99 in 10.0 mi SSW 10.4 mph 20.7 mph N/A   Clear
1:53 PM 75.0 °F - 50.0 °F 41% 29.94 in 10.0 mi South 11.5 mph 23.0 mph N/A   Clear
2:53 PM 78.1 °F - 52.0 °F 40% 29.91 in 10.0 mi South 11.5 mph 20.7 mph N/A   Clear
3:53 PM 80.1 °F 80.0 °F 54.0 °F 40% 29.88 in 10.0 mi SW 13.8 mph 17.3 mph N/A   Clear
4:53 PM 81.0 °F 80.5 °F 54.0 °F 39% 29.83 in 10.0 mi SSW 13.8 mph 23.0 mph N/A   Clear
5:53 PM 82.0 °F 81.6 °F 55.9 °F 41% 29.83 in 10.0 mi SSW 6.9 mph 25.3 mph N/A   Clear
6:53 PM 82.0 °F 81.4 °F 55.0 °F 39% 29.83 in 10.0 mi SW 10.4 mph 18.4 mph N/A   Clear
7:53 PM 80.1 °F 80.2 °F 55.9 °F 43% 29.85 in 10.0 mi SW 4.6 mph - N/A   Clear
8:53 PM 70.0 °F - 57.9 °F 65% 29.87 in 10.0 mi Calm Calm - N/A   Clear
9:53 PM 64.0 °F - 57.9 °F 80% 29.88 in 10.0 mi Calm Calm - N/A   Clear
10:53 PM 72.0 °F - 57.9 °F 61% 29.86 in 10.0 mi SW 6.9 mph - N/A   Clear
11:53 PM 66.9 °F - 57.0 °F 70% 29.85 in 10.0 mi Variable 3.5 mph - N/A   Clear